Radiation Dose at Monitoring Post of Fukushima Daini Nuclear Power Station
Date,Time,MP-1(microSv/h),MP-2(microSv/h),MP-3(microSv/h),MP-4(microSv/h),MP-5(microSv/h),MP-6(microSv/h),MP-7(microSv/h),Wind Direction,Wind Velocity(m/s),Rain
2017/12/24,00:00,0.340,0.208,0.348,0.326,0.307,0.171,0.102,west-northwest,6.2,No
2017/12/24,00:10,0.342,0.208,0.348,0.325,0.309,0.171,0.102,west-northwest,5.7,No
2017/12/24,00:20,0.342,0.207,0.350,0.327,0.308,0.170,0.102,northwest,3.8,No
2017/12/24,00:30,0.340,0.207,0.348,0.326,0.307,0.171,0.102,west-northwest,6.0,No
2017/12/24,00:40,0.340,0.208,0.349,0.326,0.308,0.170,0.102,west-northwest,6.6,No
2017/12/24,00:50,0.340,0.208,0.348,0.327,0.308,0.171,0.103,west-northwest,7.0,No
2017/12/24,01:00,0.339,0.207,0.349,0.328,0.308,0.171,0.102,west-northwest,8.1,No
2017/12/24,01:10,0.341,0.207,0.348,0.326,0.309,0.171,0.102,west,8.7,No
2017/12/24,01:20,0.341,0.207,0.349,0.327,0.309,0.171,0.104,west,8.7,No
2017/12/24,01:30,0.342,0.209,0.349,0.326,0.307,0.171,0.103,west,8.3,No
2017/12/24,01:40,0.340,0.208,0.349,0.326,0.308,0.171,0.102,west,8.2,No
2017/12/24,01:50,0.341,0.207,0.347,0.326,0.308,0.172,0.103,west,8.1,No
2017/12/24,02:00,0.341,0.208,0.347,0.324,0.309,0.170,0.103,west,7.3,No
2017/12/24,02:10,0.341,0.207,0.350,0.326,0.307,0.172,0.102,west,6.3,No
2017/12/24,02:20,0.341,0.207,0.349,0.326,0.307,0.170,0.102,west,5.6,No
2017/12/24,02:30,0.341,0.207,0.348,0.327,0.309,0.171,0.103,west,4.2,No
2017/12/24,02:40,0.341,0.206,0.348,0.326,0.307,0.171,0.102,west,3.9,No
2017/12/24,02:50,0.341,0.208,0.349,0.327,0.308,0.171,0.103,west,3.9,No
2017/12/24,03:00,0.341,0.207,0.347,0.327,0.307,0.170,0.102,west,6.0,No
2017/12/24,03:10,0.342,0.207,0.348,0.326,0.308,0.172,0.102,west,4.4,No
2017/12/24,03:20,0.340,0.208,0.349,0.326,0.307,0.171,0.103,west-southwest,5.2,No
2017/12/24,03:30,0.340,0.208,0.349,0.326,0.308,0.170,0.102,west-southwest,5.3,No
2017/12/24,03:40,0.341,0.208,0.347,0.327,0.306,0.171,0.102,west-southwest,4.3,No
2017/12/24,03:50,0.340,0.208,0.348,0.325,0.307,0.171,0.102,west-southwest,4.6,No
2017/12/24,04:00,0.341,0.207,0.349,0.325,0.308,0.171,0.102,west-southwest,4.4,No
2017/12/24,04:10,0.341,0.207,0.350,0.327,0.309,0.172,0.103,west-southwest,3.5,No
2017/12/24,04:20,0.341,0.208,0.348,0.326,0.308,0.171,0.103,southwest,3.8,No
2017/12/24,04:30,0.340,0.209,0.348,0.326,0.308,0.172,0.103,southwest,3.9,No
2017/12/24,04:40,0.341,0.208,0.349,0.326,0.307,0.171,0.102,southwest,5.0,No
2017/12/24,04:50,0.342,0.208,0.349,0.327,0.306,0.172,0.103,southwest,5.0,No
2017/12/24,05:00,0.340,0.207,0.350,0.327,0.306,0.172,0.103,southwest,4.3,No
2017/12/24,05:10,0.341,0.208,0.349,0.326,0.307,0.173,0.103,southwest,5.1,No
2017/12/24,05:20,0.342,0.209,0.349,0.327,0.308,0.171,0.102,southwest,7.1,No
2017/12/24,05:30,0.341,0.209,0.349,0.326,0.307,0.171,0.103,west-southwest,6.7,No
2017/12/24,05:40,0.342,0.207,0.349,0.327,0.308,0.171,0.102,west-southwest,7.0,No
2017/12/24,05:50,0.341,0.207,0.348,0.327,0.307,0.172,0.103,west-southwest,6.2,No
2017/12/24,06:00,0.342,0.207,0.349,0.327,0.306,0.172,0.103,southwest,5.3,No
2017/12/24,06:10,0.340,0.208,0.349,0.326,0.308,0.172,0.102,southwest,4.8,No
2017/12/24,06:20,0.341,0.207,0.347,0.325,0.308,0.171,0.103,southwest,6.0,No
2017/12/24,06:30,0.342,0.209,0.349,0.327,0.307,0.172,0.103,southwest,6.3,No
2017/12/24,06:40,0.342,0.207,0.349,0.327,0.306,0.171,0.104,southwest,6.6,No
2017/12/24,06:50,0.341,0.208,0.349,0.326,0.308,0.171,0.103,southwest,5.8,No
2017/12/24,07:00,0.342,0.209,0.348,0.326,0.308,0.171,0.103,southwest,5.0,No
2017/12/24,07:10,0.343,0.208,0.349,0.326,0.308,0.171,0.103,west-southwest,2.7,No
2017/12/24,07:20,0.341,0.207,0.348,0.327,0.308,0.171,0.103,west-southwest,2.6,No
2017/12/24,07:30,0.341,0.209,0.348,0.326,0.308,0.172,0.103,west-southwest,3.0,No
2017/12/24,07:40,0.343,0.209,0.348,0.326,0.307,0.171,0.103,west-southwest,2.9,No
2017/12/24,07:50,0.341,0.209,0.349,0.327,0.309,0.171,0.103,southwest,3.3,No
2017/12/24,08:00,0.342,0.207,0.349,0.326,0.308,0.171,0.103,southwest,3.7,No
2017/12/24,08:10,0.343,0.208,0.350,0.327,0.308,0.171,0.102,southwest,4.3,No
2017/12/24,08:20,0.340,0.209,0.350,0.326,0.307,0.172,0.103,south-southwest,4.1,No
2017/12/24,08:30,0.341,0.208,0.350,0.326,0.308,0.171,0.104,southwest,2.2,No
2017/12/24,08:40,0.342,0.208,0.348,0.326,0.307,0.171,0.104,southwest,1.4,No
2017/12/24,08:50,0.340,0.208,0.349,0.326,0.309,0.172,0.102,southwest,2.4,No
2017/12/24,09:00,0.340,0.207,0.350,0.326,0.309,0.172,0.103,south-southwest,2.6,No
2017/12/24,09:10,0.340,0.207,0.348,0.327,0.308,0.172,0.103,south-southwest,3.0,No
2017/12/24,09:20,0.341,0.208,0.347,0.326,0.309,0.172,0.103,south-southwest,3.0,No
2017/12/24,09:30,0.340,0.208,0.350,0.325,0.309,0.172,0.103,south,3.7,No
2017/12/24,09:40,0.341,0.208,0.349,0.326,0.308,0.172,0.104,south,3.3,No
2017/12/24,09:50,0.342,0.207,0.348,0.326,0.311,0.172,0.102,south,2.1,No
2017/12/24,10:00,0.340,0.208,0.350,0.326,0.308,0.172,0.103,south,3.9,No
2017/12/24,10:10,0.340,0.208,0.349,0.326,0.308,0.172,0.103,south,2.4,No
2017/12/24,10:20,0.340,0.208,0.349,0.325,0.309,0.172,0.102,south,3.7,No
2017/12/24,10:30,0.339,0.208,0.350,0.325,0.306,0.172,0.104,south,2.5,No
2017/12/24,10:40,0.342,0.207,0.348,0.328,0.310,0.171,0.103,south,3.9,No
2017/12/24,10:50,0.339,0.208,0.347,0.325,0.308,0.170,0.103,south,3.5,No
2017/12/24,11:00,0.341,0.207,0.350,0.327,0.310,0.170,0.103,south-southeast,3.0,No
2017/12/24,11:10,0.341,0.207,0.347,0.325,0.308,0.171,0.103,southeast,2.0,No
2017/12/24,11:20,0.339,0.207,0.350,0.327,0.307,0.172,0.102,south-southeast,2.7,No
2017/12/24,11:30,0.341,0.208,0.347,0.325,0.309,0.172,0.102,south-southeast,2.2,No
2017/12/24,11:40,0.339,0.209,0.347,0.325,0.308,0.170,0.102,south,2.8,No
2017/12/24,11:50,0.342,0.208,0.350,0.327,0.309,0.171,0.103,south-southwest,3.4,No
2017/12/24,12:00,0.340,0.207,0.348,0.326,0.309,0.171,0.103,south-southwest,2.9,No
2017/12/24,12:10,0.341,0.207,0.348,0.325,0.311,0.171,0.102,south-southwest,4.4,No
2017/12/24,12:20,0.341,0.207,0.348,0.326,0.307,0.171,0.103,-,CALM,No
2017/12/24,12:30,0.338,0.207,0.347,0.326,0.308,0.171,0.102,south,1.9,No
2017/12/24,12:40,0.340,0.207,0.349,0.326,0.311,0.171,0.103,south-southwest,0.6,No
2017/12/24,12:50,0.340,0.208,0.347,0.326,0.307,0.171,0.103,west,1.0,No
2017/12/24,13:00,0.341,0.208,0.347,0.326,0.311,0.172,0.103,southwest,2.2,No
2017/12/24,13:10,0.340,0.208,0.348,0.326,0.308,0.170,0.102,southwest,3.4,No
2017/12/24,13:20,0.339,0.208,0.347,0.324,0.309,0.171,0.102,south-southwest,4.3,No
2017/12/24,13:30,0.341,0.207,0.350,0.325,0.308,0.171,0.102,south-southwest,3.4,No
2017/12/24,13:40,0.339,0.207,0.349,0.326,0.308,0.171,0.103,southwest,2.4,No
2017/12/24,13:50,0.340,0.209,0.348,0.326,0.310,0.171,0.103,south-southwest,3.9,No
2017/12/24,14:00,0.340,0.208,0.348,0.326,0.307,0.172,0.103,south-southwest,4.1,No
2017/12/24,14:10,0.339,0.207,0.347,0.327,0.310,0.170,0.102,south-southwest,3.0,Yes
2017/12/24,14:20,0.341,0.207,0.348,0.325,0.308,0.171,0.102,south-southwest,3.0,No
2017/12/24,14:30,0.341,0.207,0.347,0.327,0.308,0.172,0.102,south-southwest,2.4,No
2017/12/24,14:40,0.342,0.208,0.349,0.326,0.309,0.170,0.102,south-southwest,2.3,No
2017/12/24,14:50,0.340,0.208,0.348,0.325,0.308,0.172,0.102,south-southwest,3.0,Yes
2017/12/24,15:00,0.339,0.207,0.348,0.327,0.310,0.171,0.103,south-southwest,4.9,Yes
2017/12/24,15:10,0.341,0.207,0.349,0.326,0.308,0.172,0.103,south-southwest,5.9,Yes
2017/12/24,15:20,0.340,0.207,0.348,0.327,0.309,0.173,0.102,south-southwest,5.5,Yes
2017/12/24,15:30,0.341,0.208,0.349,0.327,0.310,0.172,0.103,south-southwest,7.4,Yes
2017/12/24,15:40,0.342,0.208,0.349,0.326,0.308,0.173,0.103,south-southwest,8.1,No
2017/12/24,15:50,0.339,0.208,0.347,0.326,0.310,0.171,0.103,south-southwest,8.2,No
2017/12/24,16:00,0.341,0.207,0.350,0.327,0.307,0.172,0.104,south-southwest,7.5,No
2017/12/24,16:10,0.339,0.207,0.349,0.326,0.308,0.172,0.102,south-southwest,7.1,No
2017/12/24,16:20,0.341,0.207,0.347,0.326,0.310,0.173,0.102,south-southwest,6.2,No
2017/12/24,16:30,0.339,0.208,0.349,0.327,0.307,0.172,0.102,south-southwest,5.7,No
2017/12/24,16:40,0.340,0.207,0.347,0.324,0.310,0.170,0.103,south-southwest,5.5,No
2017/12/24,16:50,0.341,0.208,0.348,0.326,0.308,0.172,0.103,south-southwest,6.5,No
2017/12/24,17:00,0.340,0.208,0.348,0.327,0.308,0.172,0.102,south-southwest,7.0,No
2017/12/24,17:10,0.340,0.206,0.347,0.325,0.308,0.172,0.103,south-southwest,7.3,No
2017/12/24,17:20,0.341,0.207,0.348,0.326,0.309,0.171,0.102,south-southwest,8.3,No
2017/12/24,17:30,0.340,0.207,0.349,0.325,0.310,0.170,0.102,south-southwest,7.7,Yes
2017/12/24,17:40,0.342,0.207,0.346,0.325,0.306,0.171,0.102,south-southwest,7.7,Yes
2017/12/24,17:50,0.339,0.208,0.348,0.325,0.309,0.171,0.102,south-southwest,9.0,Yes
2017/12/24,18:00,0.339,0.207,0.347,0.326,0.307,0.171,0.102,south-southwest,8.5,Yes
2017/12/24,18:10,0.341,0.208,0.347,0.326,0.307,0.173,0.103,south-southwest,8.6,No
2017/12/24,18:20,0.341,0.208,0.347,0.326,0.308,0.171,0.101,south-southwest,9.5,No
2017/12/24,18:30,0.340,0.207,0.347,0.325,0.306,0.171,0.102,south-southwest,10.1,No
2017/12/24,18:40,0.340,0.208,0.348,0.326,0.310,0.171,0.102,south-southwest,10.9,No
2017/12/24,18:50,0.339,0.207,0.348,0.327,0.309,0.172,0.102,south-southwest,10.7,No
2017/12/24,19:00,0.341,0.206,0.347,0.326,0.308,0.171,0.102,south-southwest,11.5,No
2017/12/24,19:10,0.341,0.208,0.348,0.325,0.310,0.170,0.102,south-southwest,11.5,No
2017/12/24,19:20,0.339,0.207,0.347,0.327,0.308,0.170,0.102,south-southwest,11.4,No
2017/12/24,19:30,0.342,0.206,0.347,0.325,0.308,0.171,0.102,south-southwest,12.1,No
2017/12/24,19:40,0.340,0.209,0.349,0.327,0.308,0.171,0.102,south-southwest,12.4,No
2017/12/24,19:50,0.339,0.209,0.347,0.327,0.307,0.172,0.102,south-southwest,12.3,No
2017/12/24,20:00,0.341,0.206,0.346,0.327,0.310,0.171,0.102,south-southwest,12.2,No
2017/12/24,20:10,0.339,0.208,0.348,0.326,0.308,0.171,0.103,south-southwest,13.1,No
2017/12/24,20:20,0.340,0.208,0.346,0.325,0.311,0.171,0.102,south-southwest,14.0,No
2017/12/24,20:30,0.339,0.207,0.346,0.325,0.308,0.172,0.101,south-southwest,13.4,No
2017/12/24,20:40,0.339,0.208,0.349,0.327,0.306,0.171,0.103,south,12.4,No
2017/12/24,20:50,0.341,0.207,0.348,0.325,0.309,0.172,0.102,south-southwest,12.9,No
2017/12/24,21:00,0.339,0.207,0.349,0.326,0.308,0.172,0.103,south-southwest,11.5,No
2017/12/24,21:10,0.341,0.207,0.348,0.327,0.307,0.170,0.102,south-southwest,12.5,No
2017/12/24,21:20,0.340,0.207,0.347,0.327,0.309,0.172,0.102,south-southwest,11.4,No
2017/12/24,21:30,0.339,0.206,0.348,0.325,0.307,0.172,0.103,south-southwest,10.7,No
2017/12/24,21:40,0.340,0.207,0.348,0.327,0.309,0.172,0.103,south-southwest,11.1,No
2017/12/24,21:50,0.339,0.207,0.345,0.326,0.309,0.172,0.103,south-southwest,12.2,No
2017/12/24,22:00,0.339,0.207,0.349,0.325,0.309,0.171,0.102,south-southwest,11.5,No
2017/12/24,22:10,0.341,0.208,0.346,0.326,0.309,0.171,0.102,south-southwest,11.4,No
2017/12/24,22:20,0.338,0.207,0.348,0.325,0.306,0.170,0.102,south-southwest,12.1,No
2017/12/24,22:30,0.339,0.209,0.348,0.326,0.309,0.172,0.103,south-southwest,11.5,No
2017/12/24,22:40,0.340,0.207,0.348,0.326,0.307,0.170,0.102,south-southwest,10.7,No
2017/12/24,22:50,0.339,0.206,0.347,0.325,0.307,0.170,0.102,southwest,10.4,No
2017/12/24,23:00,0.340,0.209,0.348,0.327,0.309,0.171,0.103,south-southwest,8.7,No
2017/12/24,23:10,0.338,0.207,0.347,0.325,0.307,0.171,0.103,southwest,9.0,No
2017/12/24,23:20,0.341,0.208,0.349,0.325,0.310,0.172,0.102,southwest,6.5,No
2017/12/24,23:30,0.340,0.207,0.347,0.327,0.309,0.171,0.103,south-southwest,9.0,No
2017/12/24,23:40,0.339,0.206,0.347,0.325,0.308,0.171,0.102,south-southwest,11.2,No
2017/12/24,23:50,0.341,0.207,0.347,0.325,0.310,0.171,0.102,south-southwest,11.8,No
